Location: Unspecified
(0.0000°N, 0.0000°E)
Time: 19:31:17
(UTC+00:00)

Vanguard 1 - Pass Details

Date: 17 April 2026
Orbit: 654 x 3817 km, 34.2° (Epoch: 18 May)

Event Time Altitude Azimuth Distance (km) Brightness Sun altitude
Rises 03:25:29 0° 316° (NW) 7,446 14.3 -37.8°
Reaches altitude 10° 03:34:41 10° 336° (NNW) 5,771 13.8 -35.6°
Maximum altitude 03:42:54 15° 6° (N) 4,562 13.6 -33.5°
Drops below altitude 10° 03:49:14 10° 38° (NE) 4,288 13.9 -32.0°
Sets 03:54:06 0° 61° (ENE) 4,691 14.6 -30.8°
